User: anonymous   Login
Location: Oshawa
(43.9000°N, 78.8670°W)
Time: 09:02:21
(UTC-04:00)
Language:

Iridium 54 - Orbit

View from above orbital plane
View from above orbital plane
View from above satellite
View from above satellite

Ground track
Ground track

The orbit data is extracted from the following two-line orbital elements,

1 25171U 98010C   16126.50012696  .00000070  00000-0  17823-4 0  9991
2 25171  86.3973 160.8279 0002419  91.7920 268.3553 14.34219557953494
Epoch (UTC): 05 May 2016 12:00:10
Eccentricity: 0.0002419
inclination: 86.3973°
perigee height: 776 km
apogee height: 779 km
right ascension of ascending node: 160.8279°
argument of perigee: 91.7920°
revolutions per day: 14.34219557
mean anomaly at epoch: 268.3553°
orbit number at epoch: 95349

The dashed part of the orbit path shows where the satellite is in the earth's shadow,  

DLR